Location: Clarion
(42.7316°N, 93.7330°W)
Time: 09:50:08
(UTC+00:00)

Gbstr 26 Del rocket - Pass Details

Date: 22 April 2026
Orbit: 490 x 1216 km, 51.8° (Epoch: 17 May)

Event Time Altitude Azimuth Distance (km) Brightness Sun altitude
Rises 02:57:10 0° 217° (SW) 3,397 6.8 -19.1°
Reaches altitude 10° 02:59:58 10° 212° (SSW) 2,337 5.9 -19.5°
Enters shadow 03:05:03 47° 141° (SE) 899 3.4 -20.2°
